This is the latest recevied weather packets stored in our database for station/object WB4ROX. If no packets are shown the sender has not sent any weather packets the latest 10 day(s).
| Time | Temp. | Humidity | Pressure | Rain* | Wind** | Luminosity | Snow |
|---|---|---|---|---|---|---|---|
| 1777926848 | 18.33° C | 36% | 1017.8 hPa | 0 mm | - | 690 W/m² | - |
| 1777926543 | 19.44° C | 35% | 1017.8 hPa | 0 mm | - | 132 W/m² | - |
| 1777926240 | 18.89° C | 36% | 1017.9 hPa | 0 mm | - | 710 W/m² | - |
| 1777925937 | 18.89° C | 37% | 1017.9 hPa | 0 mm | - | 471 W/m² | - |
| 1777925634 | 17.78° C | 39% | 1017.9 hPa | 0 mm | - | 722 W/m² | - |
| 1777925332 | 17.78° C | 39% | 1018.1 hPa | 0 mm | - | 731 W/m² | - |
| 1777925028 | 17.78° C | 38% | 1018.2 hPa | 0 mm | - | 168 W/m² | - |
| 1777924725 | 16.67° C | 42% | 1018.2 hPa | 0 mm | - | 714 W/m² | - |
| 1777924420 | 17.22° C | 43% | 1018.4 hPa | 0 mm | - | 186 W/m² | - |
| 1777924117 | 17.22° C | 42% | 1018.2 hPa | 0 mm | - | 144 W/m² | - |
| 1777923813 | 17.78° C | 42% | 1018.2 hPa | 0 mm | - | 843 W/m² | - |
| 1777923509 | 18.33° C | 40% | 1018.4 hPa | 0 mm | - | 750 W/m² | - |
| 1777923207 | 17.78° C | 42% | 1018.4 hPa | 0 mm | - | 767 W/m² | - |
| 1777922906 | 17.22° C | 42% | 1018.5 hPa | 0 mm | - | 807 W/m² | - |
| 1777922603 | 16.67° C | 47% | 1018.5 hPa | 0 mm | - | 800 W/m² | - |
| 1777922302 | 16.67° C | 45% | 1018.4 hPa | 0 mm | - | 840 W/m² | - |
| 1777921999 | 16.67° C | 46% | 1018.6 hPa | 0 mm | - | 804 W/m² | - |
| 1777921694 | 16.67° C | 46% | 1018.8 hPa | 0 mm | - | 821 W/m² | - |
| 1777921390 | 16.67° C | 47% | 1018.8 hPa | 0 mm | - | 852 W/m² | - |
| 1777921087 | 16.11° C | 50% | 1018.9 hPa | 0 mm | - | 201 W/m² | - |
| 1777920784 | 15.56° C | 50% | 1019.1 hPa | 0 mm | - | 870 W/m² | - |
| 1777920480 | 16.11° C | 48% | 1019 hPa | 0 mm | - | 836 W/m² | - |
| 1777920176 | 16.11° C | 47% | 1019.1 hPa | 0 mm | - | 589 W/m² | - |
| 1777919872 | 15.56° C | 49% | 1019 hPa | 0 mm | - | 825 W/m² | - |
| 1777919569 | 15° C | 50% | 1018.8 hPa | 0 mm | - | 825 W/m² | - |
* Rain latest hour (hover to see other rain measurements)
** Current wind speed in m/s (hover to see current wind gust speed)